Location: Eindhoven
(51.4416°N, 5.4697°E)
Time: 17:24:51
(UTC+01:00)

deb Explorer IX - Pass Details

Date: 17 November 2019
Orbit: 545 x 1105 km, 38.8° (Epoch: 06 December)

Event Time Altitude Azimuth Distance (km) Brightness Sun altitude
Rises 03:56:12 0° 236° (SW) 3,451 - -37.3°
Reaches altitude 10° 03:59:33 10° 220° (SW) 2,397 - -36.8°
Maximum altitude 04:03:27 20° 176° (S) 1,698 - -36.2°
Exits shadow 04:06:49 11° 132° (SE) 2,094 ? -35.7°
Drops below altitude 10° 04:06:59 10° 131° (SE) 2,135 ? -35.7°
Sets 04:09:46 0° 113° (ESE) 2,956 ? -35.2°
